{"data":{"norad_id":59124,"intl_designator":"2024-043AC","name":"VSP ROSE","alt_names":[],"object_type":"PAYLOAD","status":"ACTIVE","operator":null,"country":"BEL","launch_date":"2024-03-04","launch_site_code":"AFWTR","launch_vehicle":null,"mission":null,"orbit_class":"UNKNOWN","rcs_meters":null,"size_class":null,"mass_kg":null,"dimensions":null,"purposes":[],"wikipedia_slug":null,"has_3d_model":false,"image_url":null,"decayed_at":null,"tle_current":{"epoch":"2026-09-22T22:25:48.714240Z","epoch_age_seconds":47562,"freshness":"FRESH","line1":"1 59124U 24043AC  26265.93459160  .00003152  00000+0  11259-3 0  9993","line2":"2 59124  97.5750  43.9911 0008758 259.9757 100.0495 15.29595855141925","mean_motion":15.29595855,"eccentricity":0.0008758,"inclination_deg":97.575,"raan_deg":43.9911,"arg_perigee_deg":259.9757,"mean_anomaly_deg":100.0495,"bstar":0.00011259,"rev_number":14192,"period_min":94.142514527146,"perigee_km":471.01578510405,"apogee_km":483.02327728409,"semimajor_km":6855.1565311941,"source":"CELESTRAK","updated_at":"2026-09-23T09:00:19.177892Z"}}}